Weather in Ichalkaranji

India     16°41′38″N   74°28′25″E
temp.,
°C
wind,
m/s
gust,
m/s
humid.,
%
clouds,
%
prec.,
mm/h
press.,
hPa
HPBL,
m
11 april, sun
sun1123:30+29nne234176 0.0 1012134
02:30+27nne224124 0.0 101014
05:30+26nne22434 0.0 101126
08:30+30ene56351 0.1 1014782
11:30+35e55232 0.1 10122419
14:30+36ene4320100 0.0 10083864
17:30+31w7739100 0.0 1010729
20:30+27nw475334 0.2 1013346
12 april, mon
mon1223:30+27nne245138 0.2 1013125
02:30+27ene224721 0.0 101116
05:30+26e224482 0.1 101221
08:30+30e353477 0.0 1014718
11:30+35ene652564 0.0 10132652
14:30+35ne552338 0.0 10091758
17:30+34ene542451 0.0 10081912
20:30+30nnw233261 0.0 101162
13 april, tue
tue1323:30+29w3536100 0.1 1011126
02:30+28wsw234351 0.2 1010112
05:30+26ne224693 0.4 101136
08:30+28nw2241100 0.8 101343
11:30+32nne553189 0.8 1012869
14:30+34s12258 0.0 10081447
17:30+34ne222595 0.0 10081213
20:30+30wsw123690 0.1 101097
14 april, wed
wed1423:30+28w244943 0.1 1011186
02:30+27w335489 0.0 1010127
05:30+27wsw225319 0.0 101039
08:30+30nw22385 0.0 1013486
11:30+34ssw12253 0.0 10112636
14:30+36sse332185 0.0 10072872
17:30+28wnw464189 0.3 1009200
20:30+29wnw34392 0.0 1010141
15 april, thu
thu1523:30+27w46588 0.0 1011261
02:30+25wsw22648 0.0 101071
05:30+25wsw23579 0.0 1011118
08:30+28nnw24392 0.0 1013497
11:30+35n44210 0.0 10112062
14:30+37n231770 0.0 10074451
17:30+34wnw762516 0.0 10061150
20:30+29w59380 0.0 1009374